Weather History for Russell, KS

Change the Weather History Date:

Tuesday, February 5, 2013

  Actual Average Record
Temperature  
Mean Temperature 44 °F -  
Max Temperature 61 °F 38 °F 76 °F (1963)
Min Temperature 27 °F 16 °F -11 °F (1982)
Degree Days  
Heating Degree Days 21    
Moisture  
Dew Point 27 °F    
Average Humidity 58    
Maximum Humidity 82    
Minimum Humidity 25    
Precipitation  
Precipitation 0.00 in - - ()
Sea Level Pressure  
Sea Level Pressure 30.00 in    
Wind  
Wind Speed 10 mph (West)    
Max Wind Speed 14 mph    
Max Gust Speed 21 mph    
Visibility 10 miles    
Events      
Averages and records for this station are not official NWS values.
T = Trace of Precipitation, MM = Missing Value Source: NWS Daily Summary

Daily Weather History Graph

Daily Weather History Graph

Search for Another Location

Airport:

Trip Planner

Search our weather history database for the weather conditions in past years. The results will help you decide how hot, cold, wet, or windy it might be!

Date:

Astronomy

Feb. 05, 2013 Rise Set
Actual Time 7:37 AM CST 6:01 PM CST
Civil Twilight 7:09 AM CST 6:29 PM CST
Nautical Twilight 6:37 AM CST 7:01 PM CST
Astronomical Twilight 6:06 AM CST 7:32 PM CST
Moon 3:19 AM CST (2/5) 1:21 PM CST (2/5)
Length of Visible Light 11h 20m
Length of Day
10h 24m
Waning Crescent, 26% of the Moon is Illuminated
Feb 5
Waning Crescent
Feb 10
New
Feb 17
First Quarter
Feb 25
Full
Mar 4
Last Quarter

Hourly Weather History & Observations

Time (CST) Temp. Windchill Dew Point Humidity Pressure Visibility Wind Dir Wind Speed Gust Speed Precip Events Conditions
12:53 AM 33.1 °F 23.9 °F 28.0 °F 82% 29.91 in 10.0 mi SSW 12.7 mph - N/A   Clear
1:53 AM 32.0 °F 23.0 °F 27.0 °F 82% 29.90 in 10.0 mi SW 11.5 mph - N/A   Clear
2:53 AM 30.9 °F 21.7 °F 26.1 °F 82% 29.92 in 10.0 mi SW 11.5 mph - N/A   Clear
3:53 AM 30.0 °F 21.1 °F 25.0 °F 82% 29.91 in 10.0 mi SW 10.4 mph 20.7 mph N/A   Clear
4:53 AM 30.9 °F 25.2 °F 25.0 °F 79% 29.92 in 10.0 mi WSW 5.8 mph - N/A   Clear
5:53 AM 30.0 °F 21.1 °F 24.1 °F 79% 29.95 in 10.0 mi West 10.4 mph - N/A   Clear
6:53 AM 28.9 °F 21.9 °F 24.1 °F 82% 29.96 in 10.0 mi SW 6.9 mph - N/A   Clear
7:53 AM 27.0 °F 19.5 °F 21.9 °F 81% 30.01 in 10.0 mi West 6.9 mph - N/A   Clear
8:53 AM 34.0 °F 28.8 °F 26.1 °F 73% 30.03 in 10.0 mi West 5.8 mph - N/A   Clear
9:53 AM 46.0 °F 40.6 °F 27.0 °F 47% 30.04 in 10.0 mi NW 11.5 mph - N/A   Clear
10:53 AM 51.1 °F - 27.0 °F 39% 30.05 in 10.0 mi NNW 10.4 mph - N/A   Clear
11:53 AM 55.9 °F - 26.1 °F 32% 30.05 in 10.0 mi NNW 12.7 mph - N/A   Clear
12:53 PM 60.1 °F - 26.1 °F 27% 30.02 in 10.0 mi North 12.7 mph - N/A   Clear
1:53 PM 61.0 °F - 25.0 °F 25% 30.01 in 10.0 mi Variable 5.8 mph - N/A   Clear
2:53 PM 61.0 °F - 26.1 °F 26% 30.00 in 10.0 mi NNE 10.4 mph - N/A   Clear
3:53 PM 61.0 °F - 26.1 °F 26% 30.00 in 10.0 mi NE 6.9 mph - N/A   Clear
4:53 PM 59.0 °F - 26.6 °F 29% 29.98 in 10.0 mi NE 4.6 mph - N/A   Clear
5:53 PM 48.9 °F - 28.9 °F 46% 30.01 in 9.0 mi East 8.1 mph - N/A   Clear
6:53 PM 42.1 °F 36.6 °F 28.0 °F 58% 30.04 in 10.0 mi ENE 9.2 mph - N/A   Clear
7:53 PM 41.0 °F 34.3 °F 30.0 °F 65% 30.06 in 10.0 mi ESE 11.5 mph - N/A   Clear
8:53 PM 42.1 °F 36.1 °F 30.0 °F 62% 30.05 in 10.0 mi ESE 10.4 mph - N/A   Clear
9:53 PM 42.1 °F 36.1 °F 30.0 °F 62% 30.04 in 10.0 mi ESE 10.4 mph - N/A   Clear
10:53 PM 41.0 °F 33.5 °F 30.0 °F 65% 30.03 in 10.0 mi ESE 13.8 mph - N/A   Clear
11:53 PM 37.0 °F 28.9 °F 28.9 °F 73% 30.02 in 10.0 mi ESE 12.7 mph - N/A   Clear